Wind_Speed
34 35 36 35 35 36 36 37 38 37 37 35 35 37 37 38 38 38 39 39 40 41 42 43 43 44 45 46 47 48 49 49 49 50 51 52 52 52 53 53 54 55 54 54
33 33 34 35 35 35 35 36 36 36 36 35 36 37 37 38 38 38 38 39 39 40 41 42 43 44 45 46 47 47 48 49 49 50 50 51 51 52 53 54 55 55 54 54
33 32 33 34 33 33 34 35 36 36 36 36 37 38 38 39 39 39 39 39 39 40 41 42 43 44 45 46 46 47 48 48 49 49 50 50 50 51 53 54 55 55 54 55
33 33 34 33 32 32 33 33 34 35 35 37 38 38 38 38 38 39 39 39 40 40 41 41 42 43 44 45 45 46 47 47 48 49 49 49 50 50 51 52 53 53 53 54
31 32 33 32 31 31 32 32 33 35 35 36 37 37 37 39 39 39 39 39 39 40 40 41 42 42 43 43 44 44 45 45 46 47 47 48 48 49 49 50 51 51 52 53
30 31 32 30 30 31 32 32 31 33 34 35 36 36 35 37 38 39 39 39 40 40 41 41 42 42 43 43 43 44 45 45 45 45 45 46 46 47 47 47 48 48 49 50
30 31 31 29 29 30 31 32 32 32 34 34 34 35 35 36 38 38 39 39 40 40 41 41 42 43 43 43 44 44 44 44 44 45 44 44 44 44 44 45 45 45 46 47
29 31 30 29 29 30 31 31 31 32 33 34 34 34 35 35 36 37 37 38 38 39 40 41 42 42 43 43 44 43 42 42 42 42 43 42 41 41 42 42 43 43 44 44
28 29 28 29 30 30 31 31 31 32 33 33 33 34 34 35 36 36 36 37 37 38 38 39 39 40 42 42 42 42 41 40 40 40 40 40 39 39 39 40 40 40 41 42
27 27 27 28 28 29 30 31 32 32 33 33 33 33 33 34 34 35 35 35 35 36 36 37 38 39 40 40 40 39 38 38 38 38 38 37 37 37 37 38 38 38 39 40
27 26 26 26 27 28 29 31 32 32 32 32 33 34 34 34 34 34 33 33 34 35 36 36 37 36 37 37 36 36 37 37 37 37 36 35 35 34 35 35 35 36 37 38
25 26 27 27 27 28 29 30 30 31 31 31 32 32 33 32 32 32 32 32 33 33 34 34 34 33 34 34 34 34 35 35 34 34 34 34 33 33 33 34 34 34 36 37
26 26 27 27 28 29 29 30 30 30 30 30 30 31 31 31 31 31 30 30 30 30 31 31 31 31 31 32 32 32 32 32 32 32 32 32 33 33 33 34 35 35 36 37
26 27 28 28 28 28 29 29 30 30 30 30 30 30 30 30 29 29 28 28 28 29 29 29 30 30 30 30 30 30 30 30 29 30 30 31 32 32 33 34 34 34 36 38
27 28 28 28 28 28 28 28 28 28 29 29 29 29 29 28 28 27 27 27 27 27 28 28 29 29 29 29 28 28 28 28 28 29 30 30 30 32 33 34 34 34 36 37
27 27 26 27 27 27 27 28 28 28 28 28 28 28 28 28 27 27 26 26 26 27 27 27 28 29 28 28 27 27 28 28 29 29 30 30 31 31 32 33 33 33 34 35
26 26 26 26 26 27 27 28 28 29 28 28 27 27 27 27 27 27 28 27 27 27 27 27 27 27 27 26 26 27 27 28 28 29 28 29 30 30 29 29 30 31 31 32
24 24 25 26 26 27 27 27 27 27 27 27 27 26 26 26 27 27 28 27 27 27 27 26 26 27 27 27 27 27 27 27 27 27 27 27 28 28 27 27 27 27 28 29
23 23 23 24 24 25 25 25 26 26 26 26 26 26 26 26 26 26 26 26 26 26 26 27 27 27 27 27 27 27 27 27 26 25 25 26 26 26 25 25 25 25 26 26
23 23 23 24 24 24 24 24 24 24 25 25 25 25 25 25 25 25 25 25 26 26 26 27 27 26 26 26 26 26 25 25 25 24 24 23 23 24 23 24 24 24 25 25
23 23 23 23 24 24 24 24 24 24 24 24 24 24 24 24 25 25 25 25 26 26 26 26 26 26 26 26 25 25 24 24 24 24 24 23 23 23 23 23 23 23 23 23
21 22 22 23 23 24 24 24 24 24 24 24 24 24 25 25 25 26 26 26 26 26 26 25 26 26 26 25 25 24 24 24 23 23 22 23 23 22 22 21 21 21 21 21
21 22 22 22 23 23 23 23 23 23 23 23 24 24 25 25 25 25 26 26 25 26 26 26 26 26 25 25 25 24 24 24 23 22 22 22 21 21 20 19 19 18 18 19
21 22 22 22 23 22 22 22 23 23 24 24 25 25 26 26 26 26 26 25 25 26 27 26 26 26 25 25 25 24 24 23 23 22 22 22 21 21 19 19 18 18 19 19
22 22 22 23 23 23 23 24 24 24 25 26 26 26 27 27 26 26 26 26 26 27 26 26 26 25 25 25 24 24 23 23 22 22 22 21 21 21 20 20 19 19 19 19
22 22 22 23 24 24 24 24 25 25 26 26 26 26 26 27 26 26 26 26 26 26 26 26 26 26 25 25 25 25 24 24 24 23 22 21 21 20 20 20 20 20 20 20
22 23 23 23 24 24 24 25 25 25 25 26 25 26 26 26 26 26 26 26 27 26 26 27 26 26 26 26 26 25 25 25 24 24 23 22 22 21 21 21 21 21 21 20
Wind_Direction
273 272 270 269 268 267 268 269 269 270 269 269 270 271 270 270 270 270 270 270 270 270 270 270 271 271 272 272 272 272 271 270 269 269 268 268 266 264 262 261 260 260 260 259
272 272 271 270 269 268 267 268 269 270 270 269 269 271 272 271 271 271 271 271 271 272 272 272 272 273 273 273 273 272 271 270 270 270 269 268 267 265 263 262 261 261 261 260
272 273 273 271 271 269 268 268 270 271 271 270 270 271 273 273 273 272 272 272 272 273 273 273 274 274 274 273 273 273 272 271 271 270 270 269 269 267 265 263 261 261 261 260
275 274 273 276 274 272 271 270 271 272 272 271 272 273 274 274 274 274 273 273 273 273 273 274 275 275 274 274 274 273 272 272 271 271 270 270 269 268 266 264 262 261 260 260
273 274 275 276 276 275 274 273 272 272 272 272 273 274 274 275 275 275 275 275 275 274 273 274 274 275 275 274 274 273 273 273 272 272 271 271 270 269 267 266 263 260 259 259
274 276 277 278 276 275 276 275 275 275 275 275 276 276 274 275 276 276 276 277 277 276 275 275 275 275 275 275 275 274 274 274 273 273 273 272 272 271 268 266 264 261 260 259
277 278 278 279 278 277 277 279 277 277 276 277 278 278 277 277 277 278 278 278 278 278 277 277 277 275 275 276 276 276 276 275 275 274 274 273 271 270 268 266 264 262 261 260
280 281 282 282 280 278 279 280 280 279 278 279 279 280 280 280 280 280 280 279 279 279 279 279 279 277 277 277 277 277 277 276 275 275 275 273 271 269 268 267 265 262 260 259
282 282 284 283 282 280 279 280 280 280 280 281 280 281 281 281 282 282 282 281 280 280 280 281 280 280 280 279 278 277 277 276 276 276 275 273 271 270 268 267 265 261 259 259
281 283 284 283 282 282 281 281 280 281 281 280 281 283 284 284 284 283 283 282 281 282 281 281 281 282 282 281 279 278 277 277 276 276 276 273 272 270 268 266 264 261 258 258
281 282 283 284 283 282 282 283 282 282 282 282 283 284 285 286 286 284 283 283 282 283 283 282 283 283 283 282 280 279 279 279 278 276 275 273 272 270 268 267 266 262 259 259
283 282 282 284 283 283 284 284 284 285 286 285 285 285 286 287 288 286 285 285 284 284 284 284 283 283 283 283 282 281 280 280 279 277 275 272 269 270 270 269 267 265 262 261
284 284 284 286 285 285 285 286 286 287 288 286 285 286 287 288 288 288 287 286 286 285 285 285 285 285 285 285 283 283 283 282 281 279 275 271 268 268 268 269 269 267 265 263
287 287 286 286 286 286 287 287 287 288 288 287 287 288 289 289 289 288 288 288 287 287 287 287 287 288 288 287 286 285 285 284 283 281 280 275 271 269 270 271 269 267 266 266
288 288 288 289 288 288 288 288 288 289 289 289 289 290 290 290 289 288 289 290 290 289 289 289 289 290 290 289 288 287 286 286 284 284 283 280 277 274 273 273 270 268 267 266
288 288 288 289 289 289 289 289 289 291 291 291 290 291 290 289 289 289 289 291 292 292 290 290 291 292 291 290 289 288 287 287 286 285 284 282 281 279 276 274 271 269 268 266
288 287 286 287 289 290 290 290 291 291 291 291 293 293 292 290 288 288 289 290 292 292 292 292 292 292 293 292 291 289 289 288 287 287 285 283 282 282 281 277 273 271 269 266
291 289 287 288 290 290 289 290 291 292 291 292 292 293 293 292 291 289 290 290 291 292 293 294 294 293 293 293 293 292 291 290 289 287 285 283 283 282 280 279 276 274 273 270
292 290 290 290 292 291 291 291 292 293 293 293 293 294 294 294 294 292 291 290 290 291 293 295 295 294 293 293 293 294 294 293 291 289 287 284 282 281 281 279 277 276 274 273
293 291 290 291 293 293 293 293 294 295 295 295 295 295 295 295 295 294 293 292 291 292 293 294 295 294 294 294 294 294 294 292 291 291 289 287 285 282 282 281 278 276 274 274
293 292 292 292 293 294 293 294 295 296 297 297 297 296 296 296 296 296 295 293 293 293 294 295 296 296 295 294 294 293 293 292 292 291 290 289 286 284 283 283 280 276 273 272
295 294 294 294 295 296 296 296 297 297 297 297 297 298 299 299 298 298 296 294 293 294 295 296 296 296 296 295 294 294 293 293 293 292 290 288 286 285 284 284 281 278 274 271
297 296 297 297 298 298 298 297 297 297 297 298 299 301 301 301 300 299 298 296 295 295 296 296 296 297 296 296 295 294 293 293 293 291 290 289 287 286 285 283 281 278 275 273
300 300 299 299 300 299 298 298 298 298 298 299 301 302 302 302 301 300 298 297 297 297 297 296 296 296 296 297 296 294 293 292 291 289 288 288 288 286 283 282 279 278 277 275
302 302 301 300 300 299 299 299 299 299 299 300 301 301 302 302 301 300 299 298 298 299 299 298 297 296 295 295 294 293 292 291 291 290 289 287 286 285 284 282 279 278 279 277
305 304 303 302 301 301 300 300 300 300 300 300 300 301 302 302 301 301 300 298 298 299 299 298 298 297 295 293 292 291 290 289 289 289 287 285 284 284 283 282 281 280 280 279
305 305 304 303 302 302 301 301 301 301 301 301 301 301 302 303 302 301 300 299 298 298 298 298 298 297 295 293 292 290 288 287 286 286 284 283 282 282 281 281 281 281 281 280
Height
5536 5536 5536 5537 5537 5536 5536 5536 5536 5538 5539 5541 5539 5538 5537 5537 5537 5536 5536 5536 5535 5535 5534 5533 5533 5532 5531 5530 5529 5528 5527 5527 5526 5526 5525 5525 5526 5526 5528 5529 5531 5533 5535 5537
5528 5528 5526 5527 5528 5527 5527 5527 5527 5527 5529 5530 5528 5527 5527 5526 5525 5525 5525 5524 5524 5523 5522 5521 5520 5519 5518 5517 5516 5514 5513 5513 5512 5511 5511 5511 5511 5511 5512 5513 5515 5517 5519 5521
5519 5519 5517 5518 5520 5519 5519 5519 5518 5518 5520 5519 5518 5517 5516 5515 5514 5514 5513 5513 5512 5511 5510 5509 5508 5506 5505 5504 5502 5500 5499 5498 5497 5497 5496 5496 5496 5495 5496 5497 5499 5501 5503 5505
5509 5510 5508 5513 5512 5511 5510 5510 5509 5508 5509 5508 5507 5507 5506 5504 5504 5503 5502 5501 5500 5499 5498 5496 5495 5493 5492 5490 5488 5486 5485 5484 5483 5482 5482 5481 5480 5480 5481 5481 5483 5485 5487 5489
5501 5500 5499 5503 5502 5501 5500 5501 5500 5499 5498 5498 5497 5497 5496 5494 5493 5492 5491 5490 5488 5487 5486 5484 5482 5480 5478 5477 5475 5473 5471 5470 5469 5468 5467 5467 5466 5466 5466 5466 5468 5469 5472 5474
5493 5491 5491 5495 5494 5492 5492 5491 5491 5489 5488 5487 5486 5486 5487 5484 5482 5481 5479 5478 5476 5475 5474 5472 5470 5467 5466 5464 5462 5460 5458 5456 5455 5454 5453 5453 5452 5452 5452 5452 5453 5454 5457 5459
5485 5483 5483 5486 5484 5483 5484 5484 5481 5480 5478 5477 5476 5476 5475 5473 5471 5470 5468 5466 5465 5463 5461 5459 5457 5455 5453 5451 5449 5447 5445 5443 5442 5441 5440 5440 5439 5438 5438 5438 5440 5441 5443 5445
5478 5476 5479 5478 5476 5475 5474 5473 5471 5470 5469 5468 5467 5465 5464 5462 5461 5459 5457 5455 5453 5451 5449 5447 5444 5443 5441 5439 5437 5434 5433 5431 5430 5428 5427 5426 5426 5425 5425 5425 5426 5427 5429 5432
5471 5472 5470 5468 5467 5466 5464 5463 5462 5460 5459 5458 5457 5455 5454 5452 5450 5448 5446 5444 5441 5439 5437 5435 5433 5430 5428 5426 5424 5422 5420 5419 5417 5416 5415 5414 5413 5413 5413 5413 5413 5415 5417 5419
5463 5463 5462 5460 5459 5457 5456 5454 5453 5451 5450 5449 5447 5445 5444 5442 5440 5437 5435 5433 5431 5428 5426 5424 5422 5419 5417 5414 5412 5410 5409 5408 5406 5405 5403 5402 5401 5401 5401 5401 5402 5403 5405 5408
5456 5456 5454 5453 5451 5449 5447 5446 5444 5443 5441 5439 5437 5436 5434 5432 5429 5427 5425 5423 5420 5418 5416 5413 5411 5409 5406 5404 5402 5400 5398 5397 5395 5394 5392 5392 5391 5391 5391 5391 5391 5393 5395 5396
5449 5448 5446 5445 5443 5441 5439 5438 5436 5434 5432 5430 5428 5426 5424 5422 5419 5417 5415 5413 5411 5408 5406 5404 5401 5399 5397 5394 5392 5391 5389 5387 5385 5383 5382 5382 5382 5381 5381 5381 5381 5382 5384 5386
5441 5440 5438 5437 5435 5433 5431 5429 5427 5425 5423 5422 5420 5417 5415 5413 5411 5408 5406 5403 5401 5399 5397 5395 5392 5390 5388 5386 5384 5382 5380 5378 5376 5375 5373 5372 5372 5372 5372 5372 5371 5372 5373 5374
5433 5432 5430 5429 5427 5425 5423 5421 5419 5417 5415 5413 5411 5409 5407 5405 5402 5400 5398 5395 5393 5391 5389 5387 5384 5382 5380 5378 5375 5373 5371 5369 5367 5366 5365 5363 5363 5363 5363 5363 5363 5362 5363 5363
5426 5425 5423 5421 5419 5417 5416 5414 5412 5410 5408 5406 5403 5401 5399 5397 5394 5392 5390 5388 5386 5383 5381 5379 5377 5374 5372 5370 5368 5366 5363 5361 5360 5358 5357 5355 5355 5354 5353 5353 5353 5353 5353 5353
5419 5417 5415 5413 5412 5410 5408 5406 5404 5402 5400 5398 5396 5393 5391 5389 5387 5385 5383 5381 5379 5376 5374 5372 5369 5367 5364 5362 5360 5358 5356 5354 5352 5350 5349 5347 5346 5345 5344 5343 5342 5342 5342 5342
5411 5409 5408 5406 5404 5402 5401 5399 5396 5394 5392 5390 5388 5386 5384 5381 5379 5377 5375 5373 5371 5369 5366 5364 5362 5359 5357 5355 5353 5350 5348 5346 5344 5342 5341 5339 5338 5336 5335 5334 5333 5333 5332 5332
5403 5402 5400 5398 5397 5395 5393 5391 5389 5387 5385 5383 5381 5378 5376 5374 5372 5370 5368 5366 5364 5362 5359 5357 5355 5352 5350 5348 5345 5343 5341 5339 5336 5334 5333 5331 5329 5328 5326 5325 5325 5324 5323 5323
5397 5395 5393 5391 5390 5388 5386 5384 5381 5379 5377 5375 5373 5371 5369 5366 5364 5362 5360 5358 5356 5355 5353 5350 5348 5345 5343 5340 5338 5336 5333 5331 5329 5327 5325 5323 5321 5320 5318 5317 5316 5315 5315 5315
5390 5388 5386 5385 5383 5381 5379 5377 5375 5373 5370 5368 5366 5364 5361 5359 5357 5355 5353 5351 5349 5347 5345 5343 5341 5338 5336 5333 5331 5328 5326 5324 5321 5320 5318 5316 5314 5312 5311 5309 5308 5307 5307 5307
5383 5382 5380 5378 5376 5374 5372 5370 5368 5366 5363 5361 5359 5357 5354 5352 5350 5347 5345 5344 5341 5340 5338 5335 5333 5331 5328 5326 5323 5321 5319 5317 5315 5312 5311 5309 5307 5305 5304 5302 5301 5300 5299 5299
5377 5375 5373 5371 5370 5367 5365 5363 5361 5359 5357 5354 5352 5350 5348 5345 5343 5340 5338 5336 5334 5332 5330 5328 5325 5323 5321 5318 5316 5314 5312 5310 5307 5305 5303 5302 5300 5298 5297 5296 5294 5293 5293 5292
5372 5370 5368 5365 5363 5361 5359 5357 5355 5352 5350 5348 5346 5343 5341 5338 5335 5333 5331 5329 5326 5324 5322 5320 5318 5315 5313 5311 5308 5306 5304 5302 5300 5298 5297 5295 5293 5292 5290 5289 5288 5287 5287 5286
5366 5364 5362 5359 5357 5355 5353 5351 5348 5346 5344 5341 5339 5336 5334 5331 5328 5326 5324 5321 5319 5317 5314 5312 5310 5307 5305 5303 5301 5299 5297 5295 5293 5291 5290 5288 5287 5285 5284 5283 5282 5281 5281 5280
5360 5358 5356 5354 5351 5349 5347 5345 5342 5340 5337 5334 5332 5329 5327 5324 5322 5319 5316 5314 5311 5309 5306 5304 5302 5299 5297 5295 5293 5291 5289 5287 5285 5284 5283 5281 5280 5279 5278 5276 5276 5275 5274 5274
5354 5352 5350 5348 5345 5343 5340 5338 5336 5333 5330 5328 5325 5322 5319 5317 5314 5311 5309 5306 5304 5301 5299 5296 5294 5291 5289 5287 5285 5283 5281 5279 5278 5276 5275 5274 5273 5271 5270 5269 5269 5268 5267 5267
5349 5346 5344 5341 5339 5336 5334 5331 5329 5326 5323 5320 5318 5315 5312 5309 5307 5304 5301 5299 5296 5294 5291 5288 5286 5283 5281 5279 5277 5275 5273 5271 5270 5268 5267 5266 5265 5264 5263 5262 5262 5261 5260 5259